This is the latest recevied weather packets stored in our database for station/object OK2ZAW-21. If no packets are shown the sender has not sent any weather packets the latest 10 day(s).
| Time | Temp. | Humidity | Pressure | Rain* | Wind** | Luminosity | Snow |
|---|---|---|---|---|---|---|---|
| 1788081060 | 23.89° C | 58% | 1020.7 hPa | - | - | 427 W/m² | - |
| 1788080748 | 23.33° C | 60% | 1020.7 hPa | - | - | 428 W/m² | - |
| 1788080437 | 23.33° C | 60% | 1020.7 hPa | - | - | 428 W/m² | - |
| 1788080125 | 22.78° C | 60% | 1020.7 hPa | - | - | 427 W/m² | - |
| 1788079814 | 23.33° C | 61% | 1020.7 hPa | - | - | 427 W/m² | - |
| 1788079502 | 22.78° C | 63% | 1020.7 hPa | - | - | 426 W/m² | - |
| 1788079191 | 22.78° C | 64% | 1020.8 hPa | - | - | 425 W/m² | - |
| 1788078879 | 22.22° C | 64% | 1020.9 hPa | - | - | 424 W/m² | - |
| 1788078568 | 22.22° C | 66% | 1020.9 hPa | - | - | 424 W/m² | - |
| 1788078256 | 21.67° C | 68% | 1021 hPa | - | - | 424 W/m² | - |
| 1788077945 | 21.67° C | 69% | 1021 hPa | - | - | 423 W/m² | - |
| 1788077634 | 21.67° C | 68% | 1020.8 hPa | - | - | 423 W/m² | - |
| 1788077322 | 21.11° C | 68% | 1020.8 hPa | - | - | 422 W/m² | - |
| 1788077011 | 22.22° C | 67% | 1020.9 hPa | - | - | 422 W/m² | - |
| 1788076699 | 21.67° C | 67% | 1020.9 hPa | - | - | 422 W/m² | - |
| 1788076388 | 21.67° C | 68% | 1020.8 hPa | - | - | 422 W/m² | - |
| 1788076077 | 21.11° C | 70% | 1020.8 hPa | - | - | 422 W/m² | - |
| 1788075765 | 21.11° C | 71% | 1020.7 hPa | - | - | 421 W/m² | - |
| 1788075454 | 21.11° C | 71% | 1020.7 hPa | - | - | 421 W/m² | - |
| 1788075143 | 21.11° C | 71% | 1020.7 hPa | - | - | 421 W/m² | - |
| 1788074832 | 20.56° C | 73% | 1020.7 hPa | - | - | 421 W/m² | - |
| 1788074520 | 20.56° C | 74% | 1020.7 hPa | - | - | 420 W/m² | - |
| 1788074209 | 20.56° C | 75% | 1020.8 hPa | - | - | 420 W/m² | - |
| 1788073898 | 20.56° C | 75% | 1020.7 hPa | - | - | 420 W/m² | - |
| 1788073587 | 20.56° C | 76% | 1020.7 hPa | - | - | 420 W/m² | - |
* Rain since midnight (hover to see other rain measurements)
** Current wind speed in m/s (hover to see current wind gust speed)